sat.trackr.live / text

‹ back to catalog

COSMOS 2589

NORAD 64467 · 2025-131A

PAYLOAD ACTIVE UNKNOWN

§ Identity

Operator
Country
CIS
Launch date
2025-06-19
Launch site
PLMSC
Launch vehicle
Mass (kg)
RCS (m²)

Purposes: comms

External: N2YO · Heavens-Above · Gunter

§ Orbital elements

Epoch: 2026-09-19T19:06:11.269728Z

Period
1,433.27 min
Inclination
0.1731°
Eccentricity
0.0007791
Mean motion
1.00469316 rev/d
Perigee alt
35,698.5 km
Apogee alt
35,764.1 km
Semi-major
42,109.4 km
B*
0.0000e+0
RAAN
89.8253°
Arg perigee
337.5724°
Mean anomaly
337.2524°
Rev number
450

§ Raw data

COSMOS 25891 64467U 25131A   26262.79596377 -.00000360  00000+0  00000+0 0  99982 64467   0.1731  89.8253 0007791 337.5724 337.2524  1.00469316  4506

JSON: /api/v1/satellites/64467 · /tle

For live sub-satellite position, see the globe view (requires WebGL).

§ Visibility from observer

Set your observer location to see the next 7 days of passes ≥ 10°. The values pass through the URL so the page stays shareable.

No JS? Fill the form by hand. The geolocation button needs JavaScript.